Location: �clusier
(49.9361°N, 2.7869°E)
Time: 17:50:58
(UTC+00:00)

Cosmos 1707 - Visible Passes

Search period start: 21 October 2021 00:00
Search period end: 31 October 2021 00:00
Orbit: 515 x 528 km, 82.5° (Epoch: 20 October)

Date Brightness Start Highest point End Pass type
(mag) Time Alt. Az. Time Alt. Az. Time Alt. Az.
21 Oct 2.6 04:15:32 40° SSW 04:16:54 86° WNW 04:20:49 10° N visible
22 Oct 2.7 04:03:31 82° ESE 04:03:36 83° E 04:07:31 10° NNE visible
22 Oct 4.7 05:38:48 10° W 05:40:01 11° WNW 05:41:15 10° NW visible
23 Oct 3.5 03:51:17 47° NNE 03:51:17 47° NNE 03:54:13 10° NNE visible
23 Oct 4.6 05:26:28 13° WNW 05:26:39 13° WNW 05:28:24 10° NW visible
24 Oct 4.4 03:38:53 28° NNE 03:38:53 28° NNE 03:40:53 10° NNE visible
24 Oct 4.7 05:14:03 13° NW 05:14:03 13° NW 05:15:24 10° NNW visible
25 Oct 5.1 03:26:21 19° NNE 03:26:21 19° NNE 03:27:33 10° NNE visible
25 Oct 4.8 05:01:31 13° NW 05:01:31 13° NW 05:02:20 10° NNW visible
26 Oct 5.6 03:13:44 13° NNE 03:13:44 13° NNE 03:14:11 10° NNE visible
26 Oct 5.0 04:48:53 11° NNW 04:48:53 11° NNW 04:49:13 10° NNW visible
